Regional Weather Roundup
Issued by NWS

Home | Current Version | Previous Version | Graphics & Text | Print | Product List | Glossary On
Versions: 1 2 3 4 5 6 7 8 9 10 11 12 13 14 15 16 17 18 19 20 21 22 23 24 25 26 27 28
000
ASUS45 KTFX 241310
RWRMT
MONTANA REGIONAL WEATHER ROUNDUP
NATIONAL WEATHER SERVICE GREAT FALLS MT
600 AM MST FRI FEB 24 2017

NOTE: "FAIR" INDICATES FEW OR NO CLOUDS BELOW 12000 FEET WITH NO
SIGNIFICANT WEATHER AND/OR OBSTRUCTIONS TO VISIBILITY.

MTZ001>007-043-241400-
WEST OF THE DIVIDE

CITY           SKY/WX    TMP DP  RH WIND       PRES   REMARKS
KALISPELL      CLEAR      8   5  87 N3        30.03R
MISSOULA       CLOUDY    26  18  71 N9        30.03R WCI  17
BUTTE          CLOUDY    17  13  84 CALM      29.88S
MULLAN PASS    MOCLDY    12  10  92 W3        29.89R
ANACONDA         N/A     18  12  79 CALM      29.92S
DEER LODGE       N/A     19  18  93 CALM      29.96R
EUREKA           N/A     10   7  85 CALM      30.08R
HAMILTON         N/A     27  18  69 NW9       29.99R WCI  17
LIBBY            N/A      9   5  85 CALM      30.07R
RONAN            N/A     19  15  84 CALM      30.05R
$$

MTZ008-052>055-241400-
SOUTHWEST MONTANA

CITY           SKY/WX    TMP DP  RH WIND       PRES   REMARKS
BOZEMAN        FLURRIES  22  18  85 CALM      29.93R
DILLON         LGT SNOW  20  15  81 NE7       29.87S WCI  11
W YELLOWSTONE  LGT SNOW  12  10  92 CALM      29.82R
ENNIS          CLOUDY    18  16  93 SW3       29.92R FOG
THREE FORKS      N/A     22  -4  31 SW3       29.93R
TWIN BRIDGES     N/A     21  13  71 NW6       29.89R WCI  13
$$

MTZ009-010-012-014-046-048-049-054-241400-
EAST SLOPES AND CENTRAL MONTANA

CITY           SKY/WX    TMP DP  RH WIND       PRES   REMARKS
CUT BANK       FOG       17  15  92 W5        29.96R VSB 1/2
GREAT FALLS    CLOUDY    24  21  88 CALM      29.96S
MALMSTROM AFB  FLURRIES  24  23  98 CALM      29.98S
HELENA         CLOUDY    25  22  88 NW3       29.94S
AUGUSTA        MOCLDY    18  16  94 SW3       29.92R
BOWMANS CRNR   MOCLDY    19  18  96 CALM      29.91S
CHOTEAU          N/A     19  18  93 CALM      29.97S
POWER          CLOUDY    22  20  92 NW3       29.95S
RAYNESFORD     FLURRIES  16  14  90 CALM      29.96R
ULM            FLURRIES  24  23  95 MISG      29.97R
$$

MTZ011-013-016-021-045-047-050-051-241400-
NORTH CENTRAL MONTANA

CITY           SKY/WX    TMP DP  RH WIND       PRES   REMARKS
HAVRE          CLOUDY    18  17  96 NW6       30.01S WCI  10
LEWISTOWN      CLOUDY    18  13  80 S5        29.94S
N BAR RANCH    LGT SNOW  21  19  93 SE7       29.95S WCI  13
CHINOOK          N/A    N/A N/A N/A E12       30.03S
DENTON         FLURRIES  20  18  92 CALM      29.94S
FORT BENTON      N/A     25  21  86 MISG      30.01S
GEYSER         MOCLDY    19  15  83 SW7       29.94R WCI  10
GRASS RANGE    FLURRIES  23  23  98 E3        29.93S
JUDITH GAP     FLURRIES  19  17  92 S9        29.91S WCI   7
ROY            FLURRIES  24  24  99 MISG      29.96F
STANFORD       CLOUDY    20  15  80 NW3       29.93R
WINIFRED         N/A     20  20  98 CALM      29.96S
$$

MTZ017>020-022>027-061-062-241400-
NORTHEAST MONTANA

CITY           SKY/WX    TMP DP  RH WIND       PRES   REMARKS
GLASGOW        CLOUDY    24  20  84 SE8       30.09S WCI  15
JORDAN           N/A     26  22  84 SE6       30.05S WCI  19
SIDNEY         CLOUDY    21  15  78 S3        30.14R
WOLF POINT     CLOUDY    26  19  74 E6        30.12S WCI  19
PLENTYWOOD       N/A     18  16  93 CALM      30.12R
$$

MTZ028>42-056>058-241400-
SOUTHCENTRAL AND SOUTHEAST MONTANA

CITY           SKY/WX    TMP DP  RH WIND       PRES   REMARKS
BAKER          CLOUDY    14   9  80 SE9       30.06S WCI   2
BILLINGS       LGT SNOW  25  24  96 NE8       29.95R FOG     WCI  16
LIVINGSTON     FLURRIES  20  17  88 CALM      29.91R
MILES CITY     CLOUDY    27  20  75 SE8       30.06R WCI  19
BIG TIMBER     CLOUDY    19  19 100 N5        29.94S
FORSYTH          N/A     27  27 100 E7        30.03R WCI  19
HARLOWTON      LGT SNOW  18  18  97 E5        29.93R
LAUREL           N/A     25  19  77 N2        29.92S
ROUNDUP          N/A     24  19  81 NE5       29.89S
$$

REGIONAL REPORTS...DAKOTAS

CITY           SKY/WX    TMP DP  RH WIND       PRES   REMARKS
WILLISTON      CLOUDY    18  15  88 CALM      30.14S
MINOT          CLEAR     17  11  77 NW5       30.14R
DICKINSON      CLEAR      4   0  83 CALM      30.07R
BEACH            N/A    N/A N/A N/A MISG        N/A
CROSBY         CLOUDY    23  23 100 SW6       30.15R WCI  16
TIOGA          CLOUDY    19  19 100 W5        30.13S
WATFORD CITY   CLOUDY    12  10  92 E3        30.13F
BISMARCK       CLOUDY    19  13  77 NW7       30.14R WCI  10
GRAND FORKS    CLOUDY    17   7  64 NE7       30.14S WCI   8
FARGO          CLOUDY    19  11  70 N12       30.10F WCI   7
BUFFALO SD       N/A     13   9  84 NE7       29.98S WCI   3
RAPID CITY     CLOUDY    18  14  84 N16       30.03R WCI   3
$$

REGIONAL REPORTS...WYOMING/IDAHO/WASHINGTON

CITY           SKY/WX    TMP DP  RH WIND       PRES   REMARKS
GILLETTE       CLOUDY    20  18  92 SE5       29.93S
SHERIDAN       CLOUDY    19  15  84 SE9       29.93S WCI   8
BUFFALO WY     LGT SNOW  19  14  81 S7        29.90S WCI  10
CODY           CLOUDY    14  11  87 SE3       29.89R
YELLOWSTONE LA   N/A      4   2  91 CALM      29.78R
IDAHO FALLS    LGT SNOW  20  19  96 S21G29    29.89R FOG     WCI   4
SALMON         CLOUDY    27  18  69 CALM      29.91S
SPOKANE        PTCLDY    21  18  88 S6        30.07S WCI  13
$$

REGIONAL REPORTS...ALBERTA

CITY           SKY/WX    TMP DP  RH WIND       PRES   REMARKS
EDMONTON       MOCLDY    19  14  79 NW12      30.09R WCI   7
CALGARY        LGT SNOW  19  16  86 N5        29.99R FOG
LETHBRIDGE     CLEAR     10   9  92 W8        30.00R WCI  -1
MEDICINE HAT   FLURRIES  23  21  93 N5        30.03S
WATERTON GATE    N/A      9   5  85 SW7         N/A  WCI  -3
CARDSTON         N/A      3  -2  78 SE1         N/A
MILK RIVER       N/A     21  19  93 SW8         N/A  WCI  12
$$

REGIONAL REPORTS...SASKATCHEWAN

CITY           SKY/WX    TMP DP  RH WIND       PRES   REMARKS
SWIFT CURRENT  LGT SNOW  21  19  93 S8        30.02F WCI  12
REGINA         PTCLDY    18  16  93 W6        30.11S WCI   9
SASKATOON      LGT SNOW  19  16  86 E2        30.12R
CYPRESS HILLS    N/A     19  16  86 W3          N/A
VAL MARIE        N/A     23  19  86 S8          N/A  WCI  14
ROCKGLEN         N/A     19  16  86 S7          N/A  WCI  10
ASSINIBOIA       N/A     19  18  93 NW5         N/A
$$




USA.gov is the U.S. government's official web portal to all federal, state and local government web resources and services.